COSMOS 1275 DEB, 12671

Orbit data source: Space-Track

COSMOS 1275 DEB, 12671 is space debris in LEO originally from a launch on Thu, 04 Jun 1981 UTC launched from the Plesetsk Missile And Space Complex (PKMTR). Debris objects in space refer to the collection of defunct objects orbiting the Earth. Examples of debris include non-operational satellites, rocket bodies, and fragments generated from explosions, collisions, or faulty payload assembly.

Loading next visibility...
COSMOS 1275 DEB details
Identifier
12671, 1981-053AB
Orbit
LEO
Last TLE update1 day ago
Origin
Flag of CISVMF (CIS)
ManufacturerUnknown
MissionSpacecraft
Bus & MotorUnknown
MassUnknown
Launch date (UTC)
1981-06-04 (44 years ago)
Launch vehicleUnknown
Launch site
Plesetsk Missile And Space Complex (PKMTR)
Object type
Payload
Rocket body
Debris
Shape & HBRUnknown
Radar Cross SectionSmall (<0.1 m²)

Expand to show TLE details & history

TLE from 1 day ago
0 COSMOS 1275 DEB
1 12671U 81053AB  25024.61712677  .00004276  00000-0  24370-2 0  9991
2 12671  82.9056 231.2395 0022087 325.5669  34.4073 14.09405642208409
Epoch: 2025-01-24T14:48Z
Definitive object data (Epoch: 2025-01-24T14:48:39.752Z)
Latitude-0.00012°
Longitude-115.10388°
Altitude851.169 km
Speed7.434 km/s
True Right ascension15h 24m 57s
True Declination0° 00' 00"
Sunlit
Object was in daylight at TLE epoch
Visualization TLE readout
Latitude50.92029°
Longitude55.21134°
Altitude885.1 km
Speed7.407 km/s
Apparent Right ascension05h 30m 08s
Apparent Declination11° 53' 52"
Sunlit
Object is in daylight
Visualization observer readout
Local Sidereal Time20:01:40
Azimuth42.589° NE
Elevation-27.391°
Doppler factor1
Orbital elements
Apogee altitude874.493 km
Perigee altitude842.525 km
Semi-major axis7,236.646 km
Eccentricity0.0022087
Inclination82.9056°
RAAN231.2395°
Arg. of periapsis325.5669°
True anomaly34.55065°
Mean anomaly34.4073°
Eccentric anomaly34.47894°
Mean motion3.52563 °/min
BSTAR0.002437
Orbital period102.11 mins
Loading maneuver chart data...
Loading historical data...
Loading historical data...
Loading historical data...
Loading historical data...
Loading historical data...
Loading historical data...
Loading historical data...

COSMOS 1275 DEB Visibility forecast

Observer location: undefined°, undefined

Span
Click to sort rows by Start time (UTC) header in descending order
Start Az.
Max El. time (UTC)
Max El. Az.
Max El.
End time (UTC)
End Az.
9 mins2025-01-26 01:28:51.537Z354.133° N2025-01-26 01:32:51.537Z46.337° ENE44.953°2025-01-26 01:37:51.537Z173.279° S
6 mins2025-01-26 12:57:51.537Z112.941° SE2025-01-26 12:59:51.537Z88.763° E17.058°2025-01-26 13:03:51.537Z42.991° NE
9 mins2025-01-26 14:38:51.537Z208.215° SW2025-01-26 14:42:51.537Z288.972° WNW39.361°2025-01-26 14:47:51.537Z357.367° N
|